Flag for Paraguay Weather past 2 weeks in Ciudad del Este, Paraguay

Now
66 °F

Clear.


Feels Like: 66 °F
Forecast: 60 / 82 °F
Wind: 1 mph from East

Location: Foz Do Iguacu Aeroporto

Current Time: Apr 26, 2015 at 10:11:19 PM

Latest Report: Apr 26, 2015 at 9:00 PM


Visibility: 10 mi

Pressure: 30.04 "Hg

Humidity: 94%

Dew point: 64 °F

Location of Ciudad del EsteLocation

Historic Weather in Ciudad del Este — Graph

°F

Ciudad del Este temperature yesterday

Maximum temperature yesterday: 79 °F (at 2:00 PM)
Minimum temperature yesterday: 57 °F (at 1:00 AM)
Average temperature yesterday: 66 °F

Past Weeks' High & Low Weather Summary

 TemperatureHumidityPressure
High88 °F (Apr 13, 2:00 PM)100% (Apr 12, 4:00 AM)30.15 "Hg (Apr 12, 4:00 AM)
Low57 °F (Apr 25, 1:00 AM)46% (Apr 12, 12:00 PM)29.74 "Hg (Apr 20, 3:00 PM)
Average71 °F86%29.96 "Hg
* Reported Apr 11 9:00 PM — Apr 26 9:00 PM, Ciudad del Este, Weather by CustomWeather, © 2015

Note: Actual official high and low records may vary slightly from our data, if they occured in-between our weather recording intervals... More about our weather records

Advertising

Ciudad del Este weather history for previous 24 hours

 ConditionsComfort  
Time TempWeatherWind HumidityBarometerVisibility
9:00 PM
Sun, Apr 26
66 °FClear.1 mph94%30.04 "Hg10 mi
8:00 PM66 °FClear.2 mph94%30.04 "Hg10 mi
7:00 PM68 °FClear.2 mph88%30.01 "Hg10 mi
6:00 PM70 °FClear.2 mph88%30.01 "Hg10 mi
5:00 PM75 °FClear.5 mph74%30.01 "Hg10 mi
4:00 PM79 °FSunny.6 mph61%30.01 "Hg10 mi
3:00 PM81 °FSunny.6 mph54%30.01 "Hg10 mi
2:00 PM81 °FSunny.5 mph54%30.01 "Hg10 mi
1:00 PM79 °FSunny.6 mph58%30.04 "Hg10 mi
12:00 PM77 °FSunny.6 mph61%30.07 "Hg10 mi
11:00 AM75 °FSunny.5 mph61%30.09 "Hg10 mi
10:00 AM72 °FSunny.8 mph69%30.12 "Hg10 mi
9:00 AM70 °FSunny.10 mph69%30.12 "Hg10 mi
8:00 AM66 °FSunny.8 mph78%30.12 "Hg10 mi
7:00 AM63 °FSunny.9 mph83%30.09 "Hg10 mi
6:00 AM61 °FSunny.10 mph88%30.09 "Hg10 mi
5:00 AM61 °FSunny.6 mph88%30.07 "Hg10 mi
4:00 AM61 °FClear.6 mph88%30.04 "Hg10 mi
3:00 AM63 °FClear.3 mph88%30.04 "Hg10 mi
2:00 AM59 °FClear.2 mph94%30.04 "Hg10 mi
1:00 AM59 °FClear.2 mph100%30.04 "Hg10 mi
12:00 AM59 °FClear.7 mph94%30.07 "Hg10 mi
11:00 PM
Sat, Apr 25
61 °FClear.6 mph88%30.04 "Hg10 mi
10:00 PM64 °FClear.8 mph88%30.04 "Hg10 mi
Weather by CustomWeather, © 2015

See weather overviewHow to use our weather pages